Regional Weather Roundup
Issued by NWS

Home | Current Version | Previous Version | Graphics & Text | Print | Product List | Glossary On
Versions: 1 2 3 4 5 6 7 8 9 10 11 12 13 14 15 16 17 18 19 20 21 22 23 24 25 26 27 28 29 30 31 32 33 34 35 36 37 38 39 40 41 42 43 44 45 46 47 48 49 50
000
ASUS45 KCYS 051810
RWRWY

WYOMING REGIONAL WEATHER ROUNDUP
NATIONAL WEATHER SERVICE CHEYENNE WY
1100 AM MST THU MAR 05 2015

NOTE:  "FAIR" INDICATES FEW OR NO CLOUDS BELOW 12,000 FEET
WITH NO SIGNIFICANT WEATHER AND/OR OBSTRUCTIONS TO VISIBILITY.

WYZ001-051900-
YELLOWSTONE NATIONAL PARK

CITY           SKY/WX    TMP DP  RH WIND       PRES   REMARKS
LK YELLOWSTONE   N/A     13   2  61 E5        30.32S WCI   5
6HR MIN TEMP: -10; 6HR MAX TEMP:  14;

W YELLOWSTONE  NOT AVBL

$$
WYZ002>013-054>058-071-098>099-051900-
NORTHERN WYOMING

CITY           SKY/WX    TMP DP  RH WIND       PRES   REMARKS
JACKSON        SUNNY     10   1  67 NE3       30.37F
CODY           FAIR      41  12  30 W20G29    30.15S
GREYBULL       FAIR      29   7  39 S9        30.25S WCI  20
6HR MIN TEMP:   9; 6HR MAX TEMP:  29;

WORLAND        FAIR      28   8  43 CALM      30.24S
6HR MIN TEMP:   8; 6HR MAX TEMP:  28;

SHERIDAN       FAIR      35  18  49 CALM      30.16R
6HR MIN TEMP:   6; 6HR MAX TEMP:  35;

BUFFALO          N/A    N/A N/A N/A MISG      30.15R
GILLETTE       FAIR      35  13  40 W15G24    30.14R WCI  25
6HR MIN TEMP:  19; 6HR MAX TEMP:  35;

HULETT         FAIR      32  10  40 SW9       30.13S WCI  24
NEWCASTLE      FAIR      30   5  34 NW3       30.17S

$$
WYZ014>020-022>026-101>103-051900-
CENTRAL WYOMING

CITY           SKY/WX    TMP DP  RH WIND       PRES   REMARKS
BIG PINEY      FAIR      29   8  41 VRB6      30.30S WCI  23
6HR MIN TEMP:   3; 6HR MAX TEMP:  29;

PINEDALE       FAIR      28  10  47 W22G30    30.28S WCI  15
DUBOIS         FAIR      32   9  37 N24G32    30.21S WCI  19
LANDER         FAIR      14   6  70 CALM      30.21R
6HR MIN TEMP:  -5; 6HR MAX TEMP:  15;

RIVERTON       FAIR       8   2  76 CALM      30.24R
6HR MIN TEMP:  -6; 6HR MAX TEMP:  11;

CASPER         FAIR      25  15  66 SW24      30.20S WCI   9
6HR MIN TEMP:  16; 6HR MAX TEMP:  25;

DOUGLAS        FAIR      29  17  61 NW13      30.19S WCI  19
6HR MIN TEMP: -12; 6HR MAX TEMP:  29;


$$
WYZ021-027>030-104>119-051900-
SOUTHERN WYOMING

CITY           SKY/WX    TMP DP  RH WIND       PRES   REMARKS
EVANSTON       FAIR      27  14  58 SW12      30.38R WCI  17
6HR MIN TEMP:  10; 6HR MAX TEMP:  27;

FORT BRIDGER   FAIR      32  15  49 W22       30.39  WCI  19
ROCK SPRINGS   FAIR      26  15  63 W26       30.31R WCI  10
6HR MIN TEMP:  15; 6HR MAX TEMP:  26;

DIXON          FAIR      29  12  50 SW12G18   30.39R WCI  19
RAWLINS        FAIR      24  13  62 SW20G31   30.24F WCI  10
6HR MIN TEMP:  15; 6HR MAX TEMP:  24;

SARATOGA       FAIR      27  14  59 S5        30.30R WCI  21
LARAMIE        FAIR      30  12  47 W17       30.16S WCI  18
6HR MIN TEMP:  14; 6HR MAX TEMP:  30;

CHEYENNE       FAIR      36  10  34 W13       30.17S WCI  27
6HR MIN TEMP:  19; 6HR MAX TEMP:  36;

TORRINGTON     FAIR      37  17  44 W10       30.21R WCI  30
6HR MIN TEMP:   1; 6HR MAX TEMP:  37;

PINE BLUFFS    FAIR      36  12  38 NW18G25   30.21S WCI  25

$$



USA.gov is the U.S. government's official web portal to all federal, state and local government web resources and services.